This demonstration page uses our WeatherBlox Daily Observations layout. Learn more.

Left ArrowRight Arrow

Hourly Observations for February 2, 2016

Temp ( °F °C ) Dew Point ( °F °C ) Humidity (%) Winds ( mph kmh ) Pressure ( in mb ) Visibility ( mi km ) Precip ( " mm )
12:53 am 00:53 Cloudy 40 4.4 34 1.1 79 79 Calm 30.17 1022 10 16 0.00 0.00
1:53 am 01:53 Cloudy 40 4.4 33 0.6 77 77 W 3 6 30.16 1021 10 16 0.00 0.00
2:53 am 02:53 Cloudy 41 5 32 0 70 70 NNW 5 7 30.17 1022 10 16 0.00 0.00
3:53 am 03:53 Cloudy 42 5.6 33 0.6 71 71 NW 3 6 30.19 1022 10 16 0.00 0.00
4:29 am 04:29 Cloudy with Light Rain 43 6.1 33 0.6 68 68 NNW 6 9 30.21 1023 7 11 0.01 0.25
4:53 am 04:53 Cloudy with Light Rain 41 5 35 1.7 79 79 N 7 11 30.22 1023 9 14 0.03 0.76
5:08 am 05:08 Cloudy with Light Rain 39 4 36 2 87 87 N 9 15 30.21 1023 10 16 0.00 0.00
5:53 am 05:53 Cloudy 40 4.4 35 1.7 83 83 ENE 3 6 30.23 1024 10 16 0.01 0.25
6:53 am 06:53 Cloudy 40 4.4 35 1.7 83 83 Calm 30.24 1024 10 16 0.00 0.00
7:53 am 07:53 Cloudy 40 4.4 36 2.2 86 86 WNW 3 6 30.25 1024 10 16 0.00 0.00
8:53 am 08:53 Cloudy 41 5 36 2.2 82 82 N 3 6 30.26 1025 10 16 0.00 0.00
9:53 am 09:53 Cloudy 42 5.6 37 2.8 82 82 NW 3 6 30.28 1025 10 16 0.00 0.00
10:53 am 10:53 Cloudy 44 6.7 37 2.8 76 76 N 5 7 30.29 1026 10 16 0.00 0.00
11:53 am 11:53 Cloudy 47 8.3 38 3.3 71 71 NE 6 9 30.29 1026 10 16 0.00 0.00
12:53 pm 12:53 Mostly Cloudy 47 8.3 34 1.1 61 61 Calm 30.27 1025 10 16 0.00 0.00
1:07 pm 13:07 Mostly Cloudy 47 8.3 34 1.1 61 61 Calm 30.27 1025 10 16 0.00 0.00
1:53 pm 13:53 Cloudy 48 8.9 35 1.7 61 61 VRB 3 6 30.26 1025 10 16 0.00 0.00
2:53 pm 14:53 Mostly Cloudy 49 9.4 34 1.1 56 56 W 3 6 30.27 1025 10 16 0.00 0.00
3:53 pm 15:53 Sunny 50 10 34 1.1 54 54 Calm 30.28 1025 10 16 0.00 0.00
4:53 pm 16:53 Sunny 49 9.4 34 1.1 56 56 Calm 30.28 1025 10 16 0.00 0.00
5:53 pm 17:53 Clear 43 6.1 34 1.1 71 71 WSW 3 6 30.29 1026 10 16 0.00 0.00
6:53 pm 18:53 Clear 42 5.6 35 1.7 76 76 Calm 30.30 1026 10 16 0.00 0.00
7:53 pm 19:53 Clear 39 3.9 33 0.6 79 79 Calm 30.31 1026 10 16 0.00 0.00
8:53 pm 20:53 Clear 37 2.8 33 0.6 86 86 NE 3 6 30.32 1027 10 16 0.00 0.00
9:53 pm 21:53 Clear 37 2.8 32 0 82 82 Calm 30.32 1027 10 16 0.00 0.00
10:53 pm 22:53 Mostly Cloudy 35 1.7 31 -0.6 85 85 Calm 30.32 1027 9 14 0.00 0.00
11:53 pm 23:53 Mostly Cloudy 37 2.8 33 0.6 86 86 N 5 7 30.33 1027 10 16 0.00 0.00

Powered by AerisWeather